Flag for France Weather past 2 weeks in Paris, France

Now
36 °F

Mostly cloudy.


Feels Like: 27 °F
Forecast: 35 / 42 °F
Wind: 12 mph from Northwest

Location: Villacoublay

Current Time: Jan 31, 2015 at 10:21:07 PM

Latest Report: Jan 31, 2015 at 10:00 PM


Visibility: 5 mi

Pressure: 29.21 "Hg

Humidity: 93%

Dew point: 34 °F

Location of ParisLocation

Historic Weather in Paris — Graph

°F

Paris temperature yesterday

Maximum temperature yesterday: 39 °F (at 2:30 PM)
Minimum temperature yesterday: 32 °F (at 8:30 PM)
Average temperature yesterday: 35 °F

Past Weeks' High & Low Weather Summary

 TemperatureHumidityPressure
High48 °F (Jan 26, 7:00 PM)100% (Jan 17, 1:00 AM)30.51 "Hg (Jan 17, 1:00 AM)
Low28 °F (Jan 20, 7:00 PM)61% (Jan 17, 3:30 PM)28.88 "Hg (Jan 29, 8:30 PM)
Average36 °F88%29.89 "Hg
* Reported Jan 16 9:00 PM — Jan 31 9:00 PM, Paris, Weather by CustomWeather, © 2014

Note: Actual official high and low records may vary slightly from our data, if they occured in-between our weather recording intervals... More about our weather records

Advertising

Paris weather history for previous 24 hours

 ConditionsComfort  
Time TempWeatherWind HumidityBarometerVisibility
9:00 PM
Jan 31
36 °FPassing clouds.12 mph93%29.18 "HgN/A
8:30 PM36 °FPassing clouds.10 mph93%29.18 "HgN/A
8:00 PM34 °FPassing clouds.10 mph93%29.18 "HgN/A
7:30 PM36 °FPartly cloudy.10 mph93%29.15 "HgN/A
7:00 PM36 °FPassing clouds.12 mph93%29.15 "HgN/A
6:30 PM36 °FMostly cloudy.14 mph93%29.12 "HgN/A
6:00 PM34 °FLow clouds.10 mph100%29.12 "HgN/A
5:30 PM34 °FLow clouds.9 mph93%29.09 "HgN/A
5:00 PM34 °FHeavy rain. Mostly cloudy.12 mph93%29.09 "Hg4 mi
4:30 PM37 °FRain. Partly sunny.16 mph87%29.06 "Hg4 mi
4:00 PM41 °FPartly sunny.15 mph70%29.06 "HgN/A
3:30 PM41 °FPartly sunny.12 mph70%29.06 "HgN/A
3:00 PM41 °FPartly sunny.14 mph76%29.06 "HgN/A
2:30 PM41 °FMostly cloudy.10 mph81%29.06 "HgN/A
2:00 PM41 °FBroken clouds.10 mph81%29.06 "HgN/A
1:30 PM39 °FBroken clouds.9 mph87%29.06 "HgN/A
1:00 PM39 °FLight rain. Partly sunny.10 mph81%29.06 "HgN/A
12:30 PM41 °FPartly sunny.12 mph76%29.06 "HgN/A
12:00 PM39 °FPartly sunny.12 mph81%29.06 "HgN/A
11:30 AM37 °FPassing clouds.10 mph87%29.06 "HgN/A
11:00 AM37 °FScattered clouds.9 mph87%29.06 "HgN/A
10:30 AM36 °FPassing clouds.9 mph87%29.06 "HgN/A
10:00 AM34 °FClear.7 mph93%29.06 "HgN/A
9:30 AM34 °FClear.9 mph93%29.06 "HgN/A
9:00 AM32 °FPassing clouds.7 mph93%29.03 "HgN/A
8:30 AM34 °FScattered clouds.6 mph93%29.03 "HgN/A
8:00 AM34 °FMostly cloudy.10 mph93%29.03 "HgN/A
7:30 AM34 °FPassing clouds.14 mph93%29.03 "HgN/A
7:00 AM34 °FPartly cloudy.8 mph100%29.03 "HgN/A
6:30 AM34 °FOvercast.8 mph100%29.00 "HgN/A
6:00 AM34 °FPassing clouds.8 mph100%29.00 "HgN/A
5:30 AM34 °FMostly cloudy.6 mph100%29.00 "HgN/A
5:00 AM36 °FPartly cloudy.5 mph93%29.00 "HgN/A
4:00 AM36 °FPassing clouds.6 mph93%29.00 "HgN/A
3:30 AM34 °FPassing clouds.6 mph100%29.00 "Hg6 mi
3:00 AM34 °FPartly cloudy.3 mph100%29.00 "Hg4 mi
2:30 AM34 °FLight rain. Passing clouds.3 mph100%29.00 "Hg5 mi
2:00 AM34 °FLight rain. Passing clouds.3 mph93%29.00 "Hg5 mi
1:30 AM34 °FLight rain. Passing clouds.5 mph93%29.00 "Hg6 mi
1:00 AM34 °FLight rain. Overcast.7 mph93%29.00 "HgN/A
12:30 AM36 °FMostly cloudy.6 mph81%29.00 "HgN/A
12:00 AM34 °FOvercast.7 mph87%29.00 "HgN/A
11:30 PM
Jan 30
34 °FMostly cloudy.7 mph87%29.00 "HgN/A
11:00 PM34 °FPassing clouds.6 mph87%29.00 "HgN/A
10:30 PM32 °FClear.6 mph93%29.00 "HgN/A
10:00 PM32 °FClear.6 mph87%29.00 "HgN/A
Weather by CustomWeather, © 2014

See weather overviewHow to use our weather pages